www.pogodaiklimat.ru

Погода и климат >> Архив погоды >> Индонезия >> Toli-Toli


ПОГОДА в Toli-Toli

  • Прогноз погоды в Toli-Toli
  • Монитор погоды в Toli-Toli
  • Климат города

АРХИВ ПОГОДЫ в Toli-Toli

Время (UTC), дата Ветер
(напр.,м/с)
 
Видим.   Явления Облачность Т
(С)
Тd
(С)
f
(%)
Тe
(С)
Тes
(С)
Комфортность P
(гПа)
Po
(гПа)
Тmin
(С)
Tmax
(С)
R
(мм)
R24
(мм)
S
(см)
09 18.06 СЗ 3 14 км 3/1 600 м
[Cu hum As trans Ci fib]
+31.2 +24.6 68 +44 +45 опасность
перегрева
1007.3 1007.1 0.0
12 18.06 ЮВ 2 8000 м {дождь} 3/1 600 м
[Sc As op]
+26.5 +26.0 97 +40 +40 очень
душно
1009.5 1009.3 +32.2 0.0
15 18.06 ЮВ 2 8000 м 4/1 600 м
[Sc As trans Ci fib]
+25.8 +23.4 87 +35 +35 очень
душно
1010.1 1009.9
18 18.06 ЮВ 2 8000 м 4/1 600 м
[Sc As trans Ci fib]
+25.0 +23.5 91 +34 +34 очень
душно
1009.3 1009.0
21 18.06 ЮВ 2 8000 м 5/3 600 м
[Sc As op Ci fib]
+24.5 +23.1 92 +33 +33 очень
душно
1009.7 1009.4
03 19.06 СЗ 3 14 км 3/3 600 м
[Sc As trans Ci fib]
+31.8 +25.3 69 +46 +56 опасность
перегрева
1009.6 1009.4
06 19.06 СЗ 3 13 км 4/3 600 м
[Cu med, cong As op Ci fib]
+32.2 +25.4 67 +46 +54 опасность
перегрева
1007.6 1007.4
09 19.06 Ю 4 4000 м слабый дождь 10/6 500 м
[Sc diur, vesp As op]
+28.2 +24.4 80 +40 +40 очень
душно
1008.9 1008.6 3
12 19.06 ЮВ 2 7000 м слабый дождь {гроза} 9/5 570 м
[Sc As op Ci fib]
+24.3 +23.8 97 +33 +33 очень
душно
1011.1 1010.8 +33.0 37
15 19.06 штиль 0 8000 м {дождь} 9/4 600 м
[Sc diur, vesp As op Ci fib]
+24.8 +24.3 97 +34 +34 очень
душно
1011.5 1011.2 0.2
21 19.06 ЮВ 2 8000 м 8/4 600 м
[Sc As op Ci fib]
+24.2 +23.2 94 +32 +32 очень
душно
1010.5 1010.2
00 20.06 штиль 0 13 км 8/4 600 м
[Sc As op Ci fib]
+26.2 +25.0 93 +37 +40 очень
душно
1012.2 1011.9 +24.4 40
03 20.06 СЗ 3 13 км 10/4 600 м
[Sc As op Ci fib]
+30.2 +25.1 74 +44 +48 опасность
перегрева
1011.1 1010.9
06 20.06 Ю 2 10 км {гроза, дождь} 9/4 600 м
[Cu med, cong As op Ci fib]
+29.4 +24.2 74 +41 +46 опасность
перегрева
1009.5 1009.3 45
09 20.06 ЮВ 2 5000 м слабый дождь 10/6 540 м
[Sc As op]
+25.0 +24.3 96 +35 +35 очень
душно
1010.0 1009.7 14
12 20.06 ЮВ 1 8000 м {дождь} 5/3 600 м
[Sc As op Ci fib]
+24.2 +23.5 96 +33 +33 очень
душно
1011.3 1011.0 +30.2 5
15 20.06 ЮВ 1 8000 м 5/3 600 м
[Sc As op Ci fib]
+23.4 +22.1 92 +32 +32 очень
душно
1012.7 1012.4
18 20.06 ЮВ 3 8000 м 6/3 600 м
[Sc diur, vesp As op Ci fib]
+22.8 +22.5 98 +31 +31 очень
душно
1011.7 1011.5
21 20.06 ЮВ 2 8000 м 6/3 600 м
[Sc diur, vesp As op Ci fib]
+22.9 +22.6 98 +31 +31 очень
душно
1011.5 1011.3
00 21.06 штиль 0 13 км 6/3 600 м
[Sc As op Ci fib]
+28.6 +23.9 76 +40 +43 очень
душно
1012.0 1011.7 +23.0 64
06 21.06 В 2 10 км слабый дождь 10/4 570 м
[Cu med, cong As op Ci fib]
+28.0 +25.9 88 +42 +46 опасность
перегрева
1009.5 1009.2 2
09 21.06 ЮВ 2 10 км слабый дождь 10/5
[Cb cap Ac cuf Ci fib]
+26.2 +25.0 93 +37 +38 очень
душно
1009.9 1009.7 1
12 21.06 ЮВ 1 7000 м {дождь} 8/3 600 м
[Sc As op Ci fib]
+24.6 +23.9 96 +34 +34 очень
душно
1011.6 1011.3 +30.0 2
15 21.06 ЮВ 1 7000 м в посл. час дождь 10/5 570 м
[Sc As op Ci fib]
+24.0 +23.6 98 +33 +33 очень
душно
1012.2 1011.9 0.0
18 21.06 Ю 3 5000 м слабый дождь 10/6 540 м
[Sc As op]
+24.2 +23.2 94 +32 +32 очень
душно
1010.8 1010.5 0.0
21 21.06 ЮВ 2 5000 м слабый дождь 10/6 540 м
[Sc As op]
+23.7 +23.0 96 +31 +31 очень
душно
1010.4 1010.1 1
00 22.06 ЮВ 3 12 км в посл. час дождь 10/5 540 м
[Sc As op Ci fib]
+25.1 +23.8 93 +34 +35 очень
душно
1012.1 1011.9 +23.3 0.0
03 22.06 СЗ 2 12 км 9/5 540 м
[Sc As op Ci fib]
+29.4 +25.2 78 +43 +48 опасность
перегрева
1012.0 1011.8
06 22.06 С 2 10 км в посл. час дождь 10/5 540 м
[Sc As op Ci fib]
+29.2 +24.7 77 +42 +45 опасность
перегрева
1009.3 1009.0 0.0
09 22.06 штиль 0 10 км слабый дождь 10/5 570 м
[Sc diur, vesp Ac cuf]
+25.6 +24.1 91 +35 +35 очень
душно
1009.4 1009.7 8
12 22.06 ЮВ 2 8000 м в посл. час дождь 9/4 600 м
[Sc diur, vesp Ac cuf Ci fib]
+24.4 +23.4 94 +33 +33 очень
душно
1010.8 1010.5 +30.0 0.4
15 22.06 штиль 0 8000 м 10/5 570 м
[Sc diur, vesp Ac cuf Ci fib]
+23.8 +22.8 94 +31 +31 очень
душно
1011.0 1010.8
18 22.06 ЮВ 2 8000 м 10/5 600 м
[Sc Ac cuf Ci fib]
+23.6 +22.6 94 +31 +31 очень
душно
1009.5 1009.2
21 22.06 штиль 0 8000 м 9/4 600 м
[Sc Ac cuf Ci fib]
+23.4 +22.4 94 +32 +32 очень
душно
1009.8 1009.6
00 23.06 штиль 0 12 км 8/3 600 м
[Sc As op Ci fib]
+26.2 +24.1 88 +36 +39 очень
душно
1011.1 1010.8 +23.4 8
03 23.06 СЗ 2 13 км 8/4 600 м
[Cu med, cong As op Ci fib]
+30.7 +25.1 72 +44 +51 опасность
перегрева
1010.2 1010.0
06 23.06 ЮВ 2 7000 м слабый дождь 10/5 540 м
[Sc As op Ci fib]
+29.0 +25.5 81 +43 +46 опасность
перегрева
1008.3 1008.0 0.0
09 23.06 Ю 3 12 км {дождь} 9/5 540 м
[Cb cap As op Ci fib]
+27.9 +25.1 85 +40 +41 очень
душно
1008.2 1008.0 1
15 23.06 ЮВ 2 9000 м 4/3 600 м
[Sc diur, vesp As trans Ci fib]
+23.6 +23.1 97 +31 +31 очень
душно
1011.1 1010.8
21 23.06 ЮВ 3 10 км 6/4 600 м
[Sc As op Ci fib]
+23.6 +22.0 91 +30 +30 очень
душно
1009.5 1009.2
00 24.06 штиль 0 13 км 4/3 600 м
[Sc As trans Ci fib]
+27.8 +23.7 78 +38 +42 очень
душно
1009.9 1009.7 +23.0 1
03 24.06 СЗ 2 13 км 4/3 600 м
[Sc As trans Ci fib]
+30.0 +24.5 72 +42 +54 опасность
перегрева
1009.7 1009.5
06 24.06 СЗ 3 13 км 6/3 600 м
[Sc As op Ci fib]
+31.0 +24.7 69 +44 +50 опасность
перегрева
1007.6 1007.4
09 24.06 В 1 12 км 8/4 600 м
[Sc As op Ci fib]
+28.4 +24.5 79 +40 +41 очень
душно
1007.4 1007.1
12 24.06 Ю 3 8000 м 8/4 600 м
[Sc As op Ci fib]
+25.6 +23.0 86 +34 +34 очень
душно
1009.8 1009.6 +31.0
15 24.06 ЮВ 3 8000 м 6/3 600 м
[Sc As op Ci fib]
+24.7 +22.8 89 +33 +33 очень
душно
1010.2 1010.0
18 24.06 Ю 2 10 км 6/3 600 м
[Sc diur, vesp As op Ci fib]
+23.5 +22.3 93 +31 +31 очень
душно
1009.6 1010.0
21 24.06 ЮВ 2 9000 м 6/3 600 м
[Sc diur, vesp As op Ci fib]
+22.9 +22.4 97 +31 +31 очень
душно
1009.3 1009.0
00 25.06 штиль 0 13 км 8/4 600 м
[Sc As op Ci fib]
+27.0 +24.3 85 +38 +40 очень
душно
1010.2 1009.9 +23.2
03 25.06 З 1 13 км 8/4 600 м
[Sc As op Ci fib]
+30.6 +24.3 69 +43 +51 опасность
перегрева
1009.3 1009.0
06 25.06 ЮВ 1 10 км слабый дождь 10/5 570 м
[Cu med, cong As op Ci fib]
+27.4 +24.5 84 +39 +43 очень
душно
1007.5 1007.3 0.9

 

Местоположение метеостанции Toli-Toli (Индонезия): широта 1.02 долгота 120.80 высота над уровнем моря 2 м.

В архиве по умолчанию представлена погода в Toli-Toli за последнюю неделю. Архивные данные за месяц целиком и за предыдущие месяцы, начиная с января 2011 года, Вы можете получить, выбрав интересующий диапазон дат из раскрывающегося списка и нажав кнопку "Ввод!".


*Определитесь, кто Вы:
робот инопланетянин человек

Внимание! Время в таблицах - всемирное. Для получения местного времени необходимо прибавить поправку, которая в Toli-Toli равна 8 ч.

Смотрите также архив погоды в соседних городах и на ближайших метеорологических станциях:

Погода в Palu (Индонезия) (223 км)
Погода в Gorontalo (Индонезия) (257 км)
Погода в Poso (Индонезия) (267 км)
Погода в Luwuk (Индонезия) (307 км)
Погода в Tanjung Redep (Индонезия) (392 км)
Погода в Masamba (Индонезия) (400 км)
Погода в Tanjung Selor (Индонезия) (436 км)
Погода в Majene (Индонезия) (440 км)
Погода в Tarakan (Индонезия) (442 км)
Погода в Samarinda (Индонезия) (445 км)

Пояснения к столбцам:

Ветер - указаны скорость ветра в м/с - средняя за 10 мин, порывы в срок и между сроками (в фигурных скобках) и направление, откуда дует ветер: С - северный, СВ - северо-восточный, В - восточный, ЮВ - юго-восточный, Ю - южный, ЮЗ - юго-западный, З - западный, СЗ - северо-западный.
Видимость - горизонтальная дальность видимости в метрах или километрах. При видимости от 1 до 10 км при отсутствии осадков обычно наблюдается дымка, при ухудшении видимости до 1 км и менее - туман. В сухую погоду видимость может ухудшаться дымом, пылью или мглою.
Явления - указаны атмосферные явления, наблюдавшиеся в срок или в последний час перед сроком; фигурными скобками обозначены явления, наблюдавшиеся между сроками (за 1-3 часа до срока); квадратными скобками обозначены град или гололедные отложения с указанием их диаметра в мм.
Облачность - указаны через наклонную черту общая и нижняя облачность в баллах и высота нижней границы облаков в метрах; квадратными скобками обозначены формы облаков: Ci - перистые, Cs - перисто-слоистые, Cc - перисто-кучевые, Ac - высококучевые, As - высокослоистые, Sc - слоисто-кучевые, Ns - слоисто-дождевые, Cu - кучевые, Cb - кучево-дождевые. Подробнее классификацию облаков см. в Атласе облаков (PDF).
T - Температура воздуха - температура, измеренная на высоте 2 м над землей.
Td - Температура точки росы - температура, при понижении до которой содержащийся в воздухе водяной пар достигнет насыщения.
f - Относительная влажность воздуха - влажноcть воздуха, измеренная на высоте 2 м над землей.
Te - Эффективная температура - температура, которую ощущает одетый по сезону человек в тени. Характеристика душности погоды. При расчете учитывается влияние влажности воздуха и скорости ветра на теплоощущения человека.
Tes - Эффективная температура на солнце - температура, которую ощущает человек, с поправкой на солнечный нагрев. Характеристика знойности погоды. Зависит от высоты солнца над горизонтом, облачности и скорости ветра. Ночью, в пасмурную погоду, а также при ветре 12 м/с и более поправка равна нулю.
P - Атмосферное давление - приведенное к уровню моря атмосферное давление.
Po - Атмосферное давление - измеренное на уровне метеостанции атмосферное давление.
Tmin - Минимальная температура - минимум температуры воздуха на высоте 2 м над землей.
Tmax - Максимальная температура - максимум температуры воздуха на высоте 2 м над землей.
R - Количество осадков - Количество выпавших осадков за период времени, мм. При наведении курсора мыши на число - период времени, за который выпало указанное количество осадков.
R24 - Количество осадков - Количество выпавших осадков за 24 часа, мм.
S - Снежный покров - Высота снежного покрова, см. При наведении курсора мыши на число - состояние снежного покрова и степень покрытия местности в баллах.